This is the latest recevied weather packets stored in our database for station/object KY4LEX. If no packets are shown the sender has not sent any weather packets the latest 10 day(s).
| Time | Temp. | Humidity | Pressure | Rain* | Wind** | Luminosity | Snow |
|---|---|---|---|---|---|---|---|
| 1777811210 | 4.44° C | 80% | 1026.4 hPa | 0 mm | - | 31 W/m² | - |
| 1777810908 | 3.33° C | 90% | 1026.3 hPa | 0 mm | - | 30 W/m² | - |
| 1777810604 | 2.78° C | 97% | 1026.3 hPa | 0 mm | - | 31 W/m² | - |
| 1777810302 | 2.22° C | 98% | 1026.3 hPa | 0 mm | - | 28 W/m² | - |
| 1777809997 | 1.67° C | 98% | 1026.3 hPa | 0 mm | - | 27 W/m² | - |
| 1777809695 | 1.11° C | 98% | 1026.2 hPa | 0 mm | - | 26 W/m² | - |
| 1777809392 | 0.56° C | 98% | 1026.3 hPa | 0 mm | - | 25 W/m² | - |
| 1777809090 | 0.56° C | 98% | 1026 hPa | 0 mm | - | 24 W/m² | - |
| 1777808787 | 0.56° C | 98% | 1026.1 hPa | 0 mm | - | 23 W/m² | - |
| 1777808484 | 0.56° C | 98% | 1025.9 hPa | 0 mm | - | 22 W/m² | - |
| 1777808182 | 0° C | 98% | 1025.9 hPa | 0 mm | - | 20 W/m² | - |
| 1777807880 | 0° C | 98% | 1025.9 hPa | 0 mm | - | 19 W/m² | - |
| 1777807578 | 0° C | 98% | 1025.8 hPa | 0 mm | - | 18 W/m² | - |
| 1777807275 | 0° C | 97% | 1025.6 hPa | 0 mm | - | 17 W/m² | - |
| 1777806971 | 0° C | 97% | 1025.5 hPa | 0 mm | - | 15 W/m² | - |
| 1777806667 | -0.56° C | 97% | 1025.8 hPa | 0 mm | - | 13 W/m² | - |
| 1777806363 | -0.56° C | 97% | 1025.6 hPa | 0 mm | - | 11 W/m² | - |
| 1777806061 | -0.56° C | 97% | 1025.6 hPa | 0 mm | - | 9 W/m² | - |
| 1777805756 | -0.56° C | 97% | 1025.5 hPa | 0 mm | - | 7 W/m² | - |
| 1777805454 | -0.56° C | 97% | 1025.5 hPa | 0 mm | - | 5 W/m² | - |
| 1777805152 | -0.56° C | 97% | 1025.4 hPa | 0 mm | - | 4 W/m² | - |
| 1777804849 | -0.56° C | 97% | 1025.1 hPa | 0 mm | - | 2 W/m² | - |
| 1777804547 | -0.56° C | 97% | 1025.3 hPa | 0 mm | - | 1 W/m² | - |
| 1777804244 | -0.56° C | 97% | 1025.1 hPa | 0 mm | - | 1 W/m² | - |
| 1777803941 | 0° C | 97% | 1025.1 hPa | 0 mm | - | 0 W/m² | - |
* Rain latest hour (hover to see other rain measurements)
** Current wind speed in m/s (hover to see current wind gust speed)